RH
39 45 50 51 52 51 49 49 45 45 46 48 51 52 60 66 70 73 72 73 74 81 80 69 67 64 58 53 51 49 52 55 50 48 52 61 68 70 70 67 66 63 63 61 59 59 60 62 70 71 61 65 74 75 72 67 64 61 59 62 63 62 62 64 65 65 62 59 57 58 60 61 63 63 62 60 57 55 53 52 51 50 48 47 48 49 51 53 53 49 44 41 41 43 46 48 51
40 45 46 47 46 43 40 41 40 42 44 46 50 54 59 61 66 71 70 65 66 77 77 68 69 66 61 57 54 53 54 54 50 45 47 54 61 67 70 68 66 61 61 60 59 61 61 62 64 64 59 63 68 72 70 66 65 59 55 55 56 55 57 60 60 59 58 56 56 59 62 63 65 66 66 64 61 58 57 55 53 52 52 52 53 53 52 49 45 42 41 41 44 48 51 53 53
39 43 43 42 42 41 41 39 39 41 43 44 50 55 57 60 68 72 69 60 59 71 76 71 69 64 61 62 62 59 56 55 50 45 46 50 54 59 65 68 66 63 62 62 62 63 61 61 62 63 61 61 63 67 66 64 61 56 54 49 48 50 51 53 53 54 54 54 55 57 60 61 62 62 62 62 61 59 58 56 55 54 53 52 50 49 47 46 46 45 47 47 50 53 55 55 56
37 40 40 38 37 37 40 41 40 41 43 46 53 58 57 63 72 75 73 64 56 59 69 66 59 62 58 58 62 59 54 52 50 45 46 50 52 54 59 63 64 62 62 62 63 63 61 60 60 59 57 57 60 63 60 57 54 53 51 46 46 47 48 49 49 50 50 52 52 54 56 56 56 54 53 54 55 55 55 54 53 51 49 49 49 49 50 52 54 53 54 54 55 56 56 56 57
36 38 38 36 36 34 36 38 37 37 38 41 51 58 57 63 70 76 74 65 57 48 51 51 50 60 55 53 56 53 51 48 48 47 46 51 52 51 53 57 58 57 57 59 61 60 57 57 56 53 54 56 57 56 52 51 50 48 46 43 44 45 47 47 45 46 46 47 47 48 49 49 50 49 49 49 50 52 52 50 49 49 49 50 51 52 54 56 56 55 56 56 56 56 56 56 57
35 35 36 36 36 34 33 35 38 38 37 36 44 52 53 58 63 70 67 57 55 49 45 44 46 52 51 55 56 52 52 48 46 46 45 50 52 51 50 53 54 54 53 54 56 55 52 52 53 52 54 56 53 51 49 49 47 44 42 40 41 43 44 44 44 45 46 44 43 43 43 44 45 46 47 48 49 50 49 48 48 48 50 51 52 54 55 55 55 55 55 56 56 57 57 57 57
34 33 34 35 35 33 31 33 37 38 38 36 40 49 52 54 56 59 54 45 50 53 49 47 43 42 48 55 56 56 55 51 48 46 46 47 50 51 50 51 51 51 52 52 52 52 51 51 52 53 55 54 52 49 48 46 43 41 39 39 40 42 44 44 45 45 46 44 41 41 41 42 42 44 44 46 48 48 48 48 49 50 51 52 54 55 55 55 55 55 56 57 57 58 57 56 55
34 33 33 34 34 33 32 32 34 34 35 36 38 45 49 50 50 50 48 44 49 53 52 51 43 37 46 53 52 58 57 54 51 48 48 46 47 49 50 51 50 50 51 52 52 52 52 52 52 53 54 53 51 47 45 43 41 40 38 39 39 42 44 46 47 46 48 47 45 44 44 43 42 43 44 47 48 48 49 50 51 52 53 53 55 56 56 56 55 56 56 57 56 56 56 55 54
33 33 32 33 32 32 32 31 31 30 31 32 35 42 47 47 42 39 42 45 48 53 54 51 47 40 45 50 49 57 57 55 53 51 52 49 49 50 52 52 51 51 51 53 53 54 53 53 52 52 54 52 51 47 43 42 40 39 38 38 39 41 43 46 48 47 49 49 48 47 46 45 44 46 47 49 49 50 51 52 53 54 55 55 56 57 57 57 57 56 55 55 54 53 53 52 51
32 33 32 33 33 32 30 30 31 29 30 32 35 40 43 40 38 37 38 44 46 48 55 54 50 44 42 47 51 57 55 53 51 50 54 53 52 52 55 56 54 51 50 54 55 55 53 52 53 52 53 51 50 47 43 41 39 38 36 36 37 38 39 43 45 45 47 47 48 48 47 47 48 50 50 51 52 52 53 54 56 56 57 56 57 57 57 57 55 54 52 52 51 50 50 49 49
32 33 32 32 32 32 31 32 33 32 34 36 38 38 38 36 37 40 38 45 46 40 53 54 44 38 39 46 53 58 53 51 49 46 50 51 51 52 53 56 57 53 49 51 54 55 51 51 53 52 51 51 51 48 45 41 38 37 36 36 36 37 38 39 41 42 44 45 47 48 48 49 50 52 53 54 55 56 57 57 58 58 57 56 55 55 54 53 51 50 47 47 46 46 47 46 47
32 32 32 32 32 32 32 32 33 34 36 35 37 37 37 35 32 36 36 40 40 37 47 43 35 36 36 44 53 58 54 51 49 44 45 45 46 48 50 52 55 56 50 49 52 53 50 49 50 51 51 52 51 49 45 42 39 38 37 38 38 39 40 41 42 43 45 47 48 49 50 51 52 55 56 57 58 59 59 58 57 57 56 54 52 51 50 49 46 45 43 43 43 43 44 44 45
31 31 31 33 33 33 32 33 33 34 36 33 35 37 37 37 30 30 30 32 33 32 38 34 36 39 35 43 53 58 57 52 48 43 42 40 41 43 46 49 51 55 53 50 50 50 50 49 50 52 53 53 52 49 47 44 41 40 39 40 41 42 43 44 45 46 48 49 50 51 52 53 54 56 56 57 57 57 56 56 55 54 53 52 49 48 47 45 43 43 43 43 44 44 44 44 44
30 31 30 32 34 35 34 35 34 33 36 34 36 40 41 41 35 27 23 31 37 31 32 37 40 36 32 39 49 57 58 54 49 45 43 40 39 41 43 46 48 51 52 51 50 51 50 50 52 53 54 54 52 50 48 46 45 43 42 42 42 43 44 46 47 48 49 49 50 51 51 52 52 52 53 54 55 55 55 54 53 52 51 50 46 46 47 45 43 45 46 45 45 46 45 45 45
30 31 30 32 34 35 35 35 35 34 35 36 38 42 44 45 40 33 29 34 45 44 39 40 41 37 32 33 40 50 54 54 51 47 46 44 42 40 40 42 43 47 49 50 50 51 52 51 53 53 53 54 53 53 51 49 49 48 46 45 44 44 45 45 46 47 47 48 48 49 49 50 50 51 51 52 52 51 52 51 49 48 47 46 45 47 50 49 48 48 49 49 49 49 49 47 47
30 31 31 32 33 34 35 36 37 36 37 39 40 43 45 46 43 40 42 38 38 48 46 41 42 38 33 32 36 42 49 54 53 49 47 47 45 39 38 39 39 42 45 47 48 50 52 53 53 53 52 53 53 52 52 51 49 49 47 45 45 45 45 46 46 46 47 48 48 49 49 49 49 49 49 50 50 48 50 52 51 50 49 47 46 50 53 53 53 50 50 52 50 50 51 50 49
33 33 31 31 33 34 36 37 37 38 39 40 40 42 42 45 48 44 51 48 34 44 51 45 41 34 30 32 36 40 45 50 51 49 46 46 44 37 36 36 35 39 42 44 47 48 51 53 53 52 52 51 51 50 50 49 47 46 45 45 45 45 46 46 46 46 47 47 47 47 47 47 45 46 49 52 54 52 52 55 54 54 54 51 51 55 58 59 58 56 54 53 50 50 53 54 53
34 33 32 29 30 33 36 36 37 38 40 40 38 40 37 42 52 50 55 54 42 49 52 39 32 30 29 31 35 40 42 45 48 48 46 45 43 39 37 33 33 38 41 43 45 47 47 49 50 50 49 48 47 48 46 44 43 42 42 42 42 43 44 43 43 43 43 43 44 44 43 45 45 49 54 55 57 57 55 55 55 56 56 57 59 60 61 62 62 62 59 57 55 54 56 58 58
31 32 31 28 29 33 35 35 37 39 40 40 39 38 36 42 53 52 53 51 45 48 45 34 26 25 27 29 34 38 41 44 47 49 48 46 45 44 42 37 37 39 40 42 43 44 44 44 44 45 45 44 42 41 41 40 39 39 39 39 39 40 40 39 40 41 42 45 48 47 46 48 51 56 58 56 57 58 57 56 56 57 58 59 60 59 60 62 62 62 59 59 59 59 60 60 59
28 29 27 26 28 33 34 36 38 38 40 39 40 40 39 47 52 49 47 48 48 40 31 28 23 19 23 27 33 36 39 43 47 50 50 48 49 49 48 45 45 44 42 41 40 42 45 45 44 47 47 45 42 37 37 37 36 38 37 37 37 37 40 39 39 45 49 50 52 50 50 53 58 61 58 55 56 56 56 54 54 56 56 56 55 55 58 60 60 62 62 61 61 60 60 58 57
24 24 23 25 29 33 34 36 37 38 40 39 40 40 43 51 50 47 46 47 51 42 28 24 20 19 22 23 29 33 35 39 43 49 51 50 52 52 53 53 53 51 48 45 42 44 50 51 50 55 56 51 49 47 43 36 35 43 45 45 45 44 46 45 43 51 54 54 55 52 54 60 60 59 54 54 55 54 55 52 51 53 51 50 51 52 52 53 54 57 61 63 64 63 61 58 55
21 22 21 25 29 30 33 35 36 38 38 39 40 41 47 52 49 49 48 43 42 39 29 26 24 21 22 23 25 28 31 35 38 44 51 52 52 53 54 55 54 53 54 53 51 51 53 53 53 59 62 57 55 56 53 44 39 47 54 55 56 54 52 50 51 57 59 59 58 53 56 61 56 50 47 49 50 50 52 51 49 49 48 48 48 48 46 47 50 53 56 59 62 63 61 60 58
21 27 24 26 28 27 31 33 35 38 39 39 40 42 46 50 51 52 50 46 43 40 32 25 23 20 23 27 26 26 29 31 33 37 43 48 51 53 54 55 55 53 56 57 56 56 53 53 54 58 60 57 53 53 55 56 50 51 58 57 56 56 56 55 56 60 61 60 58 54 55 54 48 45 42 43 45 45 47 46 46 45 44 43 42 43 42 42 47 52 55 55 57 59 60 59 58
21 26 26 26 26 25 29 32 35 38 39 39 40 43 45 47 51 52 52 52 45 43 39 26 20 19 20 25 26 27 29 31 33 35 38 43 47 51 55 56 55 54 56 57 57 59 57 55 54 53 53 50 49 52 55 59 57 57 60 58 55 57 60 59 58 61 62 59 56 52 49 47 44 43 42 42 43 44 45 43 43 42 39 38 38 40 39 38 41 45 49 53 54 55 56 54 54
20 22 24 24 24 27 30 32 35 36 38 40 42 45 47 47 49 51 54 53 45 44 44 30 20 20 18 20 23 24 29 32 31 31 35 40 43 46 48 49 49 48 51 55 55 58 59 57 55 53 52 50 50 52 55 58 59 59 58 56 55 57 60 61 62 64 61 55 51 49 47 45 42 43 46 47 47 46 46 44 41 40 39 38 38 39 38 38 39 38 39 45 49 50 50 50 51
20 22 24 23 24 28 30 31 33 35 36 37 41 45 49 49 49 54 55 51 48 47 47 36 26 23 20 19 20 20 25 31 29 28 31 36 39 41 42 43 45 45 46 49 50 53 57 56 56 55 56 58 58 55 57 59 57 55 54 55 56 56 56 57 58 59 55 51 51 51 49 47 45 46 49 52 52 50 47 45 42 42 42 41 39 38 39 41 43 41 38 37 40 42 44 48 52
21 22 23 24 25 27 28 30 32 33 35 36 37 42 48 49 48 55 60 55 50 51 51 40 30 27 22 20 20 18 21 24 25 26 29 32 33 36 38 39 42 42 41 43 45 48 50 50 52 53 53 57 60 60 60 60 56 55 55 56 58 58 55 53 53 52 52 53 54 53 53 52 50 48 49 52 53 49 47 45 43 43 43 43 41 40 42 45 47 47 44 41 39 39 39 43 49
21 21 23 24 24 26 27 29 32 30 37 40 34 36 46 51 49 52 60 59 54 53 47 36 32 30 25 21 19 20 21 21 22 23 25 27 27 30 34 34 36 39 39 41 43 42 42 46 48 49 48 49 54 57 58 57 55 55 55 54 54 57 59 57 55 54 54 53 51 53 55 54 52 50 52 56 58 54 50 47 44 42 41 43 43 42 42 42 42 43 42 42 41 38 38 39 43
20 20 22 24 23 28 28 28 31 28 35 38 31 39 52 55 52 51 57 61 59 53 41 33 33 30 26 23 21 24 26 25 25 24 25 26 25 26 29 31 33 37 39 41 42 40 40 45 48 47 45 45 48 50 52 50 50 52 55 54 53 58 62 59 55 54 50 43 41 44 49 50 53 55 55 59 66 64 60 57 53 46 40 40 38 36 41 43 42 41 40 46 46 40 37 36 37
20 19 21 25 24 27 28 27 29 27 30 32 32 44 57 59 54 52 58 61 58 49 38 34 32 32 30 24 24 30 32 32 33 33 33 30 26 27 27 28 32 35 36 37 40 41 40 42 45 46 46 47 48 49 50 48 47 50 52 53 52 54 55 52 50 49 43 38 38 42 49 56 58 56 53 56 63 63 61 61 62 58 48 36 25 22 35 47 47 42 43 49 46 38 39 39 35
20 21 22 25 25 26 27 26 27 28 30 33 35 42 54 59 55 54 58 58 54 48 40 36 34 38 41 33 28 35 39 38 40 46 47 37 30 32 31 30 33 35 34 33 37 39 40 42 44 47 51 52 51 50 51 50 49 49 51 52 52 52 51 49 46 44 43 45 45 43 49 56 55 56 54 53 58 64 67 62 60 61 50 30 15 12 24 37 41 41 45 46 37 34 44 47 39
20 21 23 26 26 25 26 26 26 28 33 37 36 41 52 54 53 55 54 56 58 52 46 44 42 43 52 52 37 37 47 44 40 49 54 44 36 37 38 37 38 38 36 36 38 39 41 43 47 53 56 54 53 52 51 48 46 46 47 49 51 53 54 51 46 42 43 47 46 42 44 47 50 57 60 59 64 72 72 56 40 35 28 18 12 10 13 19 23 31 42 46 42 45 54 53 47
21 20 23 26 25 25 26 26 27 27 34 41 37 39 47 47 49 52 49 58 65 58 54 57 54 47 53 61 45 37 47 48 41 43 48 47 43 40 41 45 47 46 46 45 45 45 45 47 51 56 56 53 53 55 50 43 40 40 41 42 45 46 46 44 43 43 43 45 46 45 49 52 53 56 59 62 63 58 48 31 16 11 10 9 10 9 7 11 16 23 38 52 56 58 60 57 55
21 19 22 24 25 27 26 26 30 29 31 39 38 35 38 41 45 46 43 53 63 59 59 60 57 51 52 58 49 39 43 45 42 40 44 47 46 44 45 51 53 51 52 51 48 45 44 45 47 51 55 54 53 53 51 46 41 37 36 36 36 37 39 40 42 44 45 48 52 53 52 48 42 36 33 34 31 24 17 10 6 6 6 6 6 5 4 9 12 14 25 41 49 54 62 66 67
19 18 21 24 25 27 26 26 28 29 30 36 37 33 35 39 41 42 40 45 54 56 57 59 57 55 57 56 47 41 43 45 43 41 45 48 47 49 51 53 51 48 49 49 45 40 39 39 38 42 49 53 52 50 49 47 43 41 40 38 37 39 43 46 49 49 47 47 46 41 33 23 17 13 10 8 7 6 5 4 5 4 4 4 4 4 4 5 7 5 7 14 18 24 37 51 63
18 17 20 22 24 27 27 25 24 27 32 33 32 30 32 37 39 40 38 40 47 51 54 57 54 52 58 58 47 43 46 45 44 44 47 50 52 55 54 51 48 46 46 45 42 38 37 37 34 36 41 46 48 46 45 45 45 47 47 47 48 49 52 52 49 41 33 27 22 16 12 8 6 5 5 4 3 3 3 3 4 4 4 4 3 4 5 4 5 6 6 6 6 6 9 18 38
17 17 19 21 22 26 26 25 24 27 30 30 30 29 30 34 36 37 37 36 41 49 50 47 44 42 47 51 47 46 49 48 46 46 49 53 56 57 54 50 48 48 46 42 39 38 38 36 35 37 38 40 42 42 43 45 46 48 51 52 51 49 48 42 31 20 14 11 9 8 7 7 6 5 4 4 3 3 3 3 3 3 3 3 4 4 5 5 5 5 5 5 5 5 5 9 25
17 18 19 21 22 24 25 25 26 27 29 29 30 30 30 31 34 36 37 34 34 38 41 38 37 37 36 38 40 45 49 48 44 44 50 55 56 56 54 52 50 49 48 44 40 40 40 35 35 38 40 42 42 42 44 45 47 49 49 42 35 30 26 20 13 10 9 8 9 8 8 7 6 5 4 4 3 2 2 3 3 3 3 4 5 5 4 5 5 4 7 12 15 13 13 18 27
17 18 19 21 21 23 26 25 26 27 28 30 31 30 31 32 34 36 36 34 32 31 31 33 37 39 35 29 30 38 43 41 35 36 45 52 52 51 51 51 51 50 49 47 45 41 37 33 33 39 46 46 43 44 47 47 44 40 31 21 15 14 12 10 10 10 10 10 10 10 9 7 5 4 4 4 3 3 2 3 3 3 5 5 6 6 6 7 6 6 10 23 31 28 25 29 34
15 17 20 23 22 23 25 25 26 28 28 30 31 30 32 35 37 37 35 34 34 33 31 32 34 35 34 29 27 32 33 30 29 29 35 42 44 44 44 47 51 50 47 46 45 38 34 35 37 40 45 44 42 45 44 36 26 19 14 11 11 11 11 11 11 11 12 12 12 11 9 6 4 4 4 4 3 3 3 3 5 6 7 8 8 9 9 9 10 9 12 21 29 29 28 33 38
12 13 16 19 21 23 23 23 26 28 28 29 31 35 38 38 39 38 37 37 35 35 36 36 33 33 36 35 28 27 27 25 26 25 26 31 36 39 42 43 46 47 44 44 43 36 33 37 38 39 40 39 38 35 26 17 12 11 12 12 12 12 13 13 13 13 12 11 10 8 6 4 3 4 3 4 4 4 5 5 7 8 9 10 11 11 11 11 11 11 11 15 19 21 26 35 42
12 11 11 12 15 18 21 24 26 28 29 28 31 42 46 41 39 38 38 40 38 36 38 36 35 35 37 32 24 23 25 24 25 27 27 27 30 34 37 37 39 42 40 41 41 36 34 35 35 36 33 30 27 19 13 12 13 13 13 13 13 12 12 10 10 9 7 6 5 4 3 3 3 4 4 5 5 5 7 7 8 9 10 11 11 12 12 12 12 11 11 13 15 16 23 38 50
13 11 11 11 10 13 21 26 27 28 29 28 28 36 44 44 41 38 39 41 39 38 38 36 36 37 35 29 23 21 21 21 23 27 27 26 25 26 29 29 32 36 36 36 36 34 35 32 28 28 24 19 16 13 13 14 13 12 11 11 10 9 9 8 8 8 7 7 6 5 4 4 4 5 5 5 6 7 8 8 9 10 11 12 12 13 13 12 12 11 12 13 14 15 21 33 42
13 10 10 11 9 10 19 25 26 27 27 29 29 27 36 42 39 38 40 41 40 38 38 38 37 36 35 32 28 24 21 21 21 23 24 24 24 24 25 25 27 29 29 30 30 31 32 28 22 19 16 14 13 14 14 13 11 10 10 10 11 12 13 13 13 13 12 11 10 9 7 6 6 6 7 7 8 9 10 10 11 12 12 12 12 13 12 12 12 12 15 19 22 24 27 31 34
12 10 9 9 9 11 17 22 25 26 27 32 33 28 35 41 36 37 41 40 40 38 36 37 36 35 35 34 32 29 28 25 22 22 22 22 24 24 24 25 25 26 25 26 27 29 28 24 19 16 14 14 15 16 16 12 11 11 13 15 18 19 19 18 17 16 15 14 12 11 9 8 8 7 7 8 8 10 11 12 13 13 13 13 13 13 13 14 13 14 19 28 35 39 40 38 37
10 10 9 9 9 11 15 19 21 24 28 33 34 29 35 41 36 37 41 40 38 37 35 33 32 34 35 33 33 32 32 31 27 26 25 24 25 26 26 26 25 25 25 25 26 27 25 21 18 16 15 15 17 20 18 14 14 15 19 24 29 32 32 29 25 22 19 17 14 12 10 8 8 7 7 7 8 9 10 12 13 13 13 14 15 15 15 15 15 16 21 30 37 42 41 38 35
10 9 9 9 8 10 15 18 20 25 28 30 32 29 31 38 37 35 36 32 29 33 35 33 32 33 33 32 32 33 34 34 32 31 31 29 27 28 30 29 27 26 27 27 25 24 24 21 18 17 16 17 20 24 22 20 20 21 25 31 35 38 40 40 38 35 30 24 18 13 11 8 7 7 6 6 8 10 11 13 13 13 14 15 16 17 18 18 18 20 23 29 34 36 37 38 40
10 10 9 9 8 9 17 22 21 25 27 24 27 29 30 33 31 30 29 22 21 27 30 30 30 30 30 31 32 33 34 35 35 35 34 33 30 29 30 30 29 28 28 29 27 23 22 21 19 17 17 20 23 26 26 26 26 27 29 31 34 38 42 43 43 43 41 36 28 19 13 10 7 6 6 6 8 10 12 14 14 15 15 16 16 18 20 21 22 24 27 31 34 36 39 42 43
10 11 8 10 13 11 17 25 24 23 22 17 18 24 30 29 22 20 21 19 20 25 25 24 25 25 27 30 31 31 32 33 34 34 34 35 33 28 27 28 29 29 29 30 29 26 23 21 19 18 19 22 25 27 28 29 29 30 31 32 34 38 41 42 43 44 45 44 38 28 18 11 8 7 6 6 8 11 13 14 15 16 17 18 17 18 20 23 26 28 30 33 36 39 43 44 41
10 10 8 12 18 16 20 29 24 18 16 13 12 17 23 25 19 15 16 17 17 19 22 25 25 25 27 28 28 28 29 30 32 33 34 35 34 30 29 29 28 31 32 32 31 29 26 23 20 19 20 23 26 28 29 30 32 32 34 35 36 38 41 44 45 45 46 46 44 37 25 15 9 7 7 6 8 10 12 14 15 17 18 18 18 19 22 25 29 31 33 35 38 41 43 40 37
9 10 9 10 14 15 19 25 21 15 13 11 12 15 16 17 15 13 13 15 15 15 21 28 28 28 28 28 28 28 29 30 31 32 32 33 34 33 34 35 35 37 39 37 34 32 30 27 23 20 22 24 26 29 30 31 33 34 35 37 37 39 42 45 46 48 49 48 47 42 31 18 10 8 7 7 8 11 13 14 16 17 18 19 19 20 23 28 31 33 35 37 38 38 37 33 30
9 9 9 8 9 9 12 15 14 12 14 14 14 14 13 13 13 13 13 14 14 16 22 28 29 29 30 30 30 29 30 31 31 30 29 32 36 38 39 41 42 44 47 46 40 36 34 32 27 22 22 25 27 30 31 32 34 36 36 38 39 40 42 45 48 49 50 51 50 45 34 21 12 9 8 7 9 11 13 15 18 19 20 20 20 22 25 28 30 32 35 38 39 37 33 30 28
9 9 9 9 9 9 10 13 12 13 18 19 15 13 14 14 15 15 14 14 14 16 21 26 27 28 30 30 30 30 31 31 30 28 28 32 36 38 40 43 45 47 49 50 48 43 39 36 31 25 23 25 28 30 31 32 34 36 37 38 39 41 43 45 47 50 52 53 51 45 35 23 13 9 8 8 9 10 13 17 20 22 23 22 22 24 27 29 31 32 35 39 42 41 39 38 38
9 9 9 8 9 10 11 14 17 22 26 21 14 14 15 15 17 16 14 15 15 15 20 24 26 27 28 28 29 30 30 30 30 30 30 32 36 39 42 45 47 47 47 50 53 52 47 41 36 29 25 25 27 29 31 32 34 36 37 38 39 41 43 45 47 50 54 55 52 45 37 25 14 10 9 9 9 10 14 18 21 23 24 24 24 25 26 30 33 35 37 42 45 46 47 46 46
9 8 8 8 10 11 11 13 16 24 31 26 16 14 15 15 17 17 15 15 15 16 20 24 25 26 26 27 28 29 31 33 36 36 34 34 36 39 43 46 48 49 48 49 53 58 58 53 45 36 28 26 28 30 32 33 34 35 36 38 39 41 43 45 46 50 54 57 54 47 38 25 14 10 10 9 9 12 17 21 21 23 24 25 24 24 24 28 32 35 39 43 46 47 47 45 45
8 9 9 8 9 10 10 11 12 17 31 33 23 17 17 16 17 17 16 15 15 16 20 23 24 25 26 26 27 30 34 36 36 34 33 33 36 39 42 46 50 52 51 51 52 57 62 62 58 48 36 30 29 30 31 32 32 34 36 38 39 40 42 44 46 49 54 57 55 48 37 23 13 10 10 9 10 13 20 25 26 27 27 26 24 23 24 27 33 39 43 46 47 46 43 42 45
8 9 9 8 9 9 10 11 9 12 25 35 30 24 20 16 16 18 18 17 16 16 19 23 25 26 25 25 28 33 35 35 34 31 30 32 35 39 43 46 51 53 54 53 53 56 61 66 67 61 49 39 33 31 30 30 30 32 35 37 38 38 40 43 46 49 53 56 56 49 36 21 12 10 10 10 11 13 18 24 28 31 31 30 30 29 29 32 37 43 46 46 46 43 40 42 45
9 9 9 8 9 10 11 15 13 9 16 23 24 26 23 17 15 17 18 18 18 19 22 25 26 25 24 26 30 32 29 28 29 28 28 31 34 38 42 45 49 52 52 52 52 55 60 65 70 70 63 52 43 38 34 30 29 31 34 37 38 37 39 42 46 50 54 56 55 47 33 19 12 10 10 10 11 12 14 17 23 29 32 32 33 34 34 35 38 41 43 44 43 41 40 42 46
Wind_Speed
14 14 14 14 14 14 15 18 21 22 23 26 23 22 22 20 20 19 19 17 16 17 16 16 17 17 16 17 17 18 23 24 23 24 26 28 26 25 23 23 23 23 23 23 25 26 26 25 23 22 23 23 24 26 26 26 26 25 24 23 23 22 20 19 18 18 17 17 16 17 16 16 16 15 15 14 14 13 13 12 12 11 10 9 8 7 6 5 4 3 3 4 4 5 6 6 7
14 14 14 14 15 17 19 20 22 23 23 24 22 22 21 16 17 17 17 17 16 19 20 17 17 15 15 16 16 17 19 17 17 23 27 28 27 26 24 24 24 24 24 24 25 25 25 24 23 23 23 23 23 23 22 22 23 23 23 22 21 21 20 19 18 18 17 16 16 17 17 16 16 16 15 15 14 14 13 13 12 11 10 9 8 7 6 5 4 5 5 5 5 6 6 7 7
12 14 14 14 15 17 19 20 22 23 22 22 22 20 16 14 17 16 16 17 17 21 23 18 15 12 12 15 15 14 15 15 19 24 27 26 25 26 26 25 25 25 25 25 25 24 24 23 23 23 23 22 22 21 20 20 21 21 21 20 20 20 20 19 18 18 17 17 16 16 16 16 16 16 15 15 15 14 14 13 12 11 10 9 8 7 6 6 6 6 6 6 6 6 7 7 8
12 13 14 16 17 17 17 20 22 22 23 22 23 20 16 18 20 18 16 15 14 18 23 19 15 12 8 12 14 14 18 20 22 23 26 26 23 25 25 25 26 26 25 25 25 23 22 22 22 22 21 21 21 21 19 19 19 19 19 18 18 18 19 18 18 18 17 17 16 17 16 16 16 15 15 14 14 14 13 12 11 10 9 9 8 7 7 6 6 6 6 6 6 6 6 7 8
12 11 13 17 19 19 18 19 19 20 22 22 26 23 18 20 20 19 15 13 11 12 18 17 19 18 12 15 17 19 24 23 22 20 23 26 23 23 25 25 25 25 25 24 24 23 22 22 22 21 20 19 19 18 17 17 17 17 16 17 17 17 17 17 17 17 17 16 16 16 16 16 15 15 15 14 14 13 12 11 10 9 8 8 7 7 6 6 5 5 5 5 5 6 6 7 7
14 13 13 16 16 17 19 21 20 21 19 19 24 22 18 18 18 18 13 12 13 13 15 17 22 24 21 22 20 21 23 21 21 20 20 24 23 23 24 24 24 25 24 24 24 22 22 22 22 20 18 17 16 16 16 16 16 15 15 15 16 16 16 17 17 17 17 16 16 16 16 15 15 14 14 13 12 12 11 10 9 8 7 6 6 6 5 5 5 4 4 5 5 6 7 7 8
14 15 14 15 16 17 20 22 22 22 18 16 19 18 16 15 13 12 8 11 16 17 17 20 23 23 26 25 23 23 20 19 20 19 19 21 22 22 23 23 24 24 24 24 23 22 21 21 21 19 17 16 15 15 15 15 15 15 15 15 15 16 16 16 16 16 16 15 15 15 14 14 13 13 12 12 11 10 10 9 8 7 6 5 5 5 4 4 4 4 4 5 5 6 6 7 8
14 14 14 15 17 19 19 20 19 20 19 16 16 16 15 12 10 8 7 10 15 17 16 22 17 14 25 25 25 26 20 19 18 19 18 19 20 21 22 21 22 22 23 23 22 22 20 20 19 18 16 15 15 14 14 14 14 15 15 15 15 15 16 15 15 15 15 14 14 13 13 12 12 11 11 10 10 9 8 7 6 5 5 4 4 3 3 3 4 4 4 5 5 5 6 7 8
13 14 15 17 17 17 17 21 19 18 18 18 17 15 14 11 8 8 9 11 13 15 16 18 6 5 23 25 25 26 21 20 18 19 18 18 19 19 20 19 19 20 21 22 21 21 20 18 17 16 16 15 14 13 13 13 14 14 14 14 14 15 15 14 14 14 13 13 13 12 12 11 10 10 9 9 8 8 7 5 4 4 3 3 3 3 3 3 4 5 5 5 6 6 7 8 9
12 15 16 17 16 17 18 22 21 20 22 21 18 14 12 8 6 8 11 12 11 11 13 9 3 10 24 25 25 24 21 20 18 19 19 18 19 19 20 19 18 17 18 19 20 20 19 18 16 15 15 14 13 13 12 12 12 13 13 13 13 13 13 13 12 12 12 12 11 11 10 9 9 8 8 7 7 6 5 4 3 3 2 2 2 3 4 4 5 5 6 7 7 7 8 8 9
12 16 16 18 18 20 22 22 21 20 21 18 15 11 8 3 3 5 9 12 9 9 12 10 11 19 24 24 25 23 20 19 17 18 19 19 19 19 19 19 18 16 16 17 18 18 17 17 16 15 14 13 13 12 12 11 11 11 11 11 11 11 11 11 11 11 10 10 9 9 9 7 7 6 6 6 5 5 3 3 2 2 1 2 3 4 5 5 6 6 7 8 8 8 8 8 9
11 13 15 17 16 19 22 22 20 18 17 14 13 8 4 0 1 4 9 14 11 12 14 12 14 18 20 23 25 23 21 19 17 17 18 18 18 18 18 18 18 17 16 16 16 17 16 16 16 15 13 13 13 12 11 11 11 10 10 10 10 10 10 10 10 9 9 8 8 7 7 6 5 5 5 5 4 3 2 1 1 1 2 3 4 5 6 6 7 8 8 8 9 9 8 8 8
10 9 10 13 16 18 19 20 18 17 17 13 10 7 3 2 4 7 13 16 12 13 14 10 13 15 17 22 23 23 21 19 18 17 17 17 16 16 16 16 16 17 16 15 15 15 15 15 15 14 13 13 12 11 11 10 10 10 10 9 9 9 9 9 8 8 7 7 6 6 5 5 4 4 3 3 3 2 1 1 2 3 4 5 6 7 7 7 7 8 8 8 9 9 8 7 7
6 4 4 9 14 15 14 16 17 18 18 12 11 12 6 3 7 10 13 18 15 13 14 10 10 9 12 19 21 23 21 19 19 17 18 17 16 16 15 15 15 16 16 16 15 14 14 14 13 13 12 12 12 11 11 10 10 9 9 9 9 9 8 8 8 7 6 6 5 5 4 4 3 2 1 1 0 1 1 3 3 4 5 6 7 8 8 8 8 8 8 9 9 9 9 8 7
5 3 1 5 10 13 13 15 17 18 18 14 14 13 6 4 7 9 9 12 13 12 11 10 6 3 6 13 18 22 21 20 19 18 18 17 17 16 16 15 15 15 15 15 15 14 14 13 12 11 11 11 11 10 10 9 9 9 9 9 8 8 8 8 7 7 6 5 5 4 3 3 2 1 1 1 2 3 3 4 4 5 5 6 7 7 8 9 9 9 9 9 9 9 9 8 7
4 5 3 6 12 14 14 16 17 17 16 14 14 12 9 9 5 7 6 5 9 12 9 9 9 6 7 11 16 20 20 20 19 18 17 17 17 16 16 16 16 16 15 15 15 14 13 12 12 11 11 11 10 10 9 9 9 9 8 8 8 7 7 6 6 6 5 5 4 3 2 2 1 1 1 1 2 3 3 3 4 5 5 6 7 8 8 9 9 9 10 10 9 9 9 8 7
6 9 8 9 15 14 14 18 17 17 18 16 15 13 12 13 7 6 7 5 8 12 7 8 10 9 11 12 15 18 19 18 17 17 17 16 16 16 16 16 16 16 16 16 15 15 14 13 12 11 11 10 10 10 9 9 9 9 8 8 7 7 6 6 5 5 4 4 3 2 2 1 0 1 2 2 2 3 3 4 5 5 7 7 7 8 8 8 9 9 9 9 9 9 10 9 7
11 12 11 12 15 16 18 17 15 15 20 19 15 13 10 12 11 7 8 7 9 10 6 9 13 12 12 13 13 15 17 17 15 15 15 14 14 14 14 15 15 15 16 17 17 15 14 14 13 12 11 10 10 10 10 9 9 8 8 7 6 6 5 5 5 4 3 3 2 1 0 1 1 2 3 4 4 4 4 5 5 6 8 8 8 8 8 8 8 9 9 8 8 9 9 9 9
13 13 14 14 14 18 17 15 15 15 20 18 13 13 8 10 13 9 9 8 7 7 7 8 13 14 13 14 13 12 14 16 16 14 13 12 12 12 13 14 14 14 14 15 16 16 15 14 14 13 11 11 10 10 10 9 8 8 7 6 6 5 5 4 4 3 3 2 1 1 1 2 3 3 4 5 5 6 6 7 7 7 8 9 10 9 8 8 8 9 9 7 7 8 8 9 9
12 14 13 11 14 18 17 16 16 15 17 14 15 15 8 14 16 8 8 9 5 2 6 9 12 14 14 15 14 12 13 14 15 15 14 13 12 12 11 12 12 13 13 13 14 14 14 13 13 13 12 11 10 9 8 8 7 7 6 5 5 4 4 3 3 2 2 2 1 1 1 2 3 4 6 6 6 6 7 7 7 7 8 10 11 10 9 8 9 9 9 8 8 8 8 9 9
8 13 12 15 19 19 18 18 16 15 15 14 17 15 11 18 14 9 10 10 9 3 5 8 9 13 14 15 15 13 13 12 14 15 14 13 13 13 12 12 12 12 13 13 13 13 13 13 12 11 11 10 9 8 7 6 6 6 5 4 4 3 3 3 2 2 1 1 1 1 1 2 3 5 6 6 6 7 8 7 7 8 9 9 10 10 9 9 9 10 9 9 9 9 9 9 9
5 11 13 19 20 16 17 15 15 17 15 15 16 13 15 18 13 11 10 6 7 5 5 6 6 10 12 13 14 13 13 12 13 13 13 13 12 12 13 13 12 12 12 12 12 12 11 11 12 10 9 8 7 7 6 5 5 4 4 3 3 3 2 2 1 0 1 2 2 1 1 2 4 5 6 6 7 7 7 7 8 9 9 9 9 10 10 10 10 10 10 10 10 10 10 10 9
12 20 18 20 17 12 14 13 14 18 16 18 17 14 15 15 13 13 10 5 5 5 5 5 5 8 10 12 12 13 14 13 12 12 11 12 11 11 10 10 10 10 10 11 10 10 9 9 9 9 8 7 6 6 5 4 4 4 3 1 1 1 1 1 2 3 3 4 3 1 1 2 4 6 7 7 7 7 8 8 9 9 10 10 9 10 10 10 10 10 11 11 11 11 11 11 10
19 21 21 20 13 9 13 15 17 18 18 18 15 13 12 13 15 13 11 8 6 7 6 5 7 8 9 10 11 12 13 13 13 12 11 10 9 9 9 9 9 10 9 9 9 8 7 7 7 7 7 7 7 6 5 4 4 4 2 1 1 1 1 2 3 3 4 5 2 0 1 2 4 6 7 8 8 8 8 9 10 11 12 12 11 11 11 11 11 11 11 11 11 11 12 12 11
18 18 22 17 13 16 19 19 19 19 17 14 11 11 10 13 15 12 13 9 5 8 6 5 7 8 9 9 9 10 11 12 12 12 12 12 10 10 10 9 8 8 8 8 8 7 6 6 6 6 6 6 6 6 6 4 4 3 2 2 2 2 3 3 4 4 5 4 1 1 1 3 5 7 8 8 9 9 9 10 11 13 14 14 14 13 13 12 12 12 11 10 10 11 12 12 12
21 22 22 16 16 21 22 19 17 16 15 12 11 10 9 13 14 13 14 10 6 8 6 6 7 8 10 10 9 9 10 11 11 9 10 11 11 10 9 9 8 7 6 6 6 6 6 5 5 5 5 5 5 5 5 4 2 2 2 2 3 4 4 4 5 5 4 3 2 2 4 5 7 8 9 10 11 11 10 11 12 14 14 15 15 15 14 13 13 13 12 11 11 11 12 13 13
24 20 18 18 19 20 18 18 16 13 12 9 7 8 9 12 14 15 14 11 10 8 7 8 9 10 10 11 11 10 10 10 10 9 9 10 9 9 8 8 8 7 6 5 5 5 5 4 4 3 3 3 3 4 4 4 3 2 3 3 3 4 3 5 5 4 4 4 4 5 6 7 8 9 11 12 13 13 13 12 12 13 14 15 16 16 15 14 14 14 14 13 13 12 12 13 13
25 20 19 19 17 16 14 16 15 10 11 8 6 7 9 10 13 15 16 15 13 9 8 9 11 12 11 12 12 11 11 10 10 9 9 9 7 7 7 6 6 6 6 5 5 4 4 3 3 3 2 3 3 4 3 4 4 3 3 4 4 3 4 5 5 4 5 6 6 7 7 8 10 10 12 14 15 15 15 15 14 14 14 14 14 15 16 15 15 15 15 15 14 14 13 14 14
23 19 18 18 16 15 14 14 13 8 10 10 7 10 12 11 12 13 15 16 14 10 7 9 11 11 12 13 13 11 10 10 10 9 9 8 7 7 6 6 5 5 6 7 6 5 4 3 4 3 3 3 3 3 3 3 4 4 4 4 4 3 4 5 5 6 7 7 8 9 9 10 11 11 12 15 15 15 15 16 16 15 14 13 14 16 16 16 16 16 15 16 16 15 15 15 15
21 17 15 22 18 15 15 12 12 10 9 9 7 12 15 13 11 11 14 15 14 11 8 10 10 10 13 13 12 10 9 10 9 8 8 6 6 6 6 6 6 5 6 7 7 6 6 5 5 5 4 4 4 4 3 3 3 4 4 4 4 4 5 6 7 8 9 9 9 10 10 10 10 12 13 15 15 15 15 15 15 14 14 16 17 17 17 16 16 16 16 17 17 17 16 16 16
23 21 18 23 20 17 17 12 14 13 9 10 7 10 18 17 13 12 13 13 12 11 10 10 9 11 13 12 11 10 9 8 7 7 8 7 6 6 5 6 6 5 6 7 7 8 7 6 6 5 5 4 4 4 3 3 3 4 4 5 5 5 6 7 8 9 9 9 10 11 11 11 12 14 15 16 16 16 15 15 15 15 17 20 21 19 17 16 16 15 16 18 18 17 17 18 18
25 25 22 23 19 18 18 15 16 14 12 16 9 9 19 17 14 14 11 11 10 9 9 9 8 10 12 11 11 10 9 9 8 8 9 9 7 6 5 5 5 5 6 7 8 8 7 6 6 6 7 6 5 4 4 4 4 4 5 5 6 6 8 9 9 9 9 10 11 13 12 12 14 16 17 17 17 17 17 19 21 22 23 22 21 18 17 17 17 16 16 17 17 16 17 18 19
25 24 26 25 20 20 22 17 15 13 16 21 12 7 16 15 14 14 9 10 11 9 9 9 7 9 10 11 10 10 11 11 11 10 10 10 9 7 5 4 5 6 7 9 9 9 8 7 7 8 9 8 6 6 6 6 5 5 5 6 6 8 9 10 9 9 11 12 13 14 14 13 15 16 17 18 18 19 21 24 25 24 23 21 20 18 18 18 17 17 16 17 16 17 17 17 19
26 23 26 25 22 24 24 21 20 15 15 22 17 9 9 10 13 14 9 11 13 11 10 11 8 9 10 10 10 11 13 13 12 11 11 11 10 8 6 6 7 8 8 10 10 9 8 9 10 10 10 9 8 7 7 7 7 7 6 7 8 9 10 11 10 9 10 11 13 14 15 15 17 18 19 20 21 22 24 24 24 22 21 19 19 18 18 19 18 17 17 18 19 19 18 18 18
29 25 27 27 25 26 25 26 28 20 15 22 21 14 10 10 13 13 11 11 13 12 11 11 10 9 10 11 11 12 14 14 13 12 11 11 10 9 8 8 9 9 9 11 10 9 8 8 9 9 9 10 10 9 8 7 8 8 8 8 9 9 10 11 12 10 9 11 14 15 17 18 19 19 19 20 21 22 22 22 21 20 19 18 17 17 17 17 18 17 17 19 19 20 20 20 20
28 26 27 30 28 26 28 28 28 24 23 24 21 17 15 14 14 14 13 13 12 11 13 13 12 10 10 12 12 13 14 15 14 13 11 12 11 10 10 10 9 9 10 10 10 9 8 7 7 8 9 10 10 9 8 8 8 9 9 9 9 9 9 11 13 13 13 14 16 16 17 18 18 18 18 19 20 20 20 20 19 19 18 17 16 16 15 16 16 17 17 17 18 19 20 20 20
23 27 26 30 31 28 28 29 28 26 25 24 21 19 17 15 15 14 12 12 12 13 13 13 11 10 11 13 13 12 14 15 14 13 12 12 13 12 11 10 10 10 10 10 9 9 8 7 6 7 8 8 9 9 8 8 8 8 8 8 8 9 10 11 13 15 16 16 17 17 17 18 19 19 19 20 21 20 19 18 18 18 17 17 16 15 15 15 16 16 17 17 17 17 18 19 20
20 29 29 29 32 30 28 28 28 26 23 24 24 22 19 15 14 15 14 13 11 12 12 10 8 7 9 12 12 12 13 14 14 12 12 13 13 13 12 11 10 9 9 9 8 9 8 7 6 7 7 7 8 7 7 7 7 7 7 7 9 10 11 12 13 14 15 17 18 18 19 20 20 20 19 20 20 20 19 18 17 17 16 15 15 14 14 14 15 16 15 15 15 14 15 17 18
19 27 32 31 31 29 28 29 29 26 24 26 28 24 20 16 15 16 16 12 9 9 10 8 6 6 7 9 10 12 15 15 13 12 12 13 12 12 12 11 10 10 10 9 8 9 8 8 8 7 7 7 7 6 5 5 5 6 7 8 9 10 11 12 13 14 16 18 19 20 20 20 20 19 18 18 18 18 17 16 15 15 14 13 13 13 13 13 13 14 13 12 12 12 13 15 17
21 23 30 32 31 28 28 31 30 29 27 27 28 23 19 18 18 19 15 12 10 9 10 10 8 7 7 8 9 11 15 13 12 11 12 13 13 12 12 11 12 11 11 10 9 8 8 8 8 8 7 7 7 5 5 5 5 6 7 8 9 10 11 13 15 16 17 19 20 20 20 19 18 17 16 16 16 15 14 14 13 13 12 12 13 13 13 13 13 12 12 11 11 12 13 15 17
20 21 24 27 28 30 31 30 30 31 28 26 25 22 24 25 23 23 19 14 14 12 12 14 13 11 10 12 12 12 14 12 11 11 11 11 11 11 11 11 12 12 11 9 9 9 9 9 8 8 8 7 6 5 4 4 4 6 7 8 9 11 13 14 16 18 19 19 20 20 19 18 18 17 17 17 16 15 14 13 13 13 13 13 13 13 13 13 13 12 12 12 13 13 13 14 16
21 20 21 24 24 29 33 30 30 30 28 28 28 21 22 31 28 25 24 21 19 17 17 18 16 14 16 15 14 14 14 14 13 12 11 9 8 9 11 11 11 11 10 9 10 9 9 9 8 8 7 6 5 4 3 3 4 5 7 8 10 11 12 14 15 17 17 18 18 18 18 18 18 18 17 17 16 15 14 14 14 14 14 13 13 13 13 13 13 12 12 13 14 14 13 14 15
26 21 19 22 25 27 34 35 32 32 32 34 35 22 17 30 33 29 27 26 24 23 22 22 19 18 20 18 15 16 16 16 15 13 12 11 10 9 10 10 9 9 9 9 10 9 9 9 8 8 7 5 4 3 3 3 3 4 6 7 8 9 10 12 13 14 16 17 18 18 18 18 17 16 16 16 15 15 14 14 14 13 13 13 12 12 13 13 13 13 12 12 13 14 14 14 15
29 23 19 22 24 24 35 40 37 38 37 34 36 30 21 29 37 33 31 29 28 29 28 25 24 23 22 20 17 17 17 17 16 15 14 13 12 10 9 8 8 9 9 10 10 9 9 9 8 8 7 5 5 4 2 1 2 4 5 6 8 9 11 12 14 16 17 18 19 19 18 18 17 16 15 14 14 14 14 13 12 12 12 12 12 12 13 13 13 14 13 12 12 13 13 14 15
27 21 19 22 21 21 34 41 41 39 32 28 34 32 19 23 37 36 34 35 33 33 32 29 29 28 26 24 21 19 17 17 17 17 16 14 12 11 10 9 9 10 10 10 10 10 10 10 8 8 7 6 6 4 2 1 3 4 5 7 8 10 12 14 15 16 17 18 19 19 19 19 18 17 15 15 14 14 14 14 13 13 13 13 13 13 13 13 14 14 13 13 12 13 14 15 15
22 19 19 22 19 17 28 35 39 36 23 25 38 37 19 15 31 39 39 41 40 38 36 31 30 29 28 27 23 21 20 18 18 17 17 16 13 13 13 13 12 11 11 11 12 12 11 10 9 9 8 8 8 5 3 2 1 2 4 7 9 11 12 14 16 17 18 20 21 21 21 21 20 19 18 17 16 15 15 15 15 15 14 15 14 14 14 14 13 13 13 13 13 13 14 15 15
22 21 21 24 23 18 25 34 38 27 14 24 40 43 28 11 22 41 42 37 37 40 40 36 33 31 29 28 25 24 23 21 19 16 16 16 16 16 16 17 16 14 13 13 13 13 12 11 11 10 11 11 9 7 5 3 2 3 5 7 9 11 12 14 16 18 20 22 23 24 23 23 22 21 20 19 17 16 16 15 15 15 16 16 16 15 15 14 14 14 14 13 13 13 14 14 14
26 25 23 23 21 15 21 29 28 13 6 22 36 44 37 18 20 37 40 35 33 37 39 36 34 31 28 27 26 26 25 23 21 19 17 17 18 20 20 20 19 18 16 14 13 13 13 13 13 13 13 12 10 8 6 5 4 4 5 7 9 10 12 14 16 18 21 23 24 26 26 25 24 22 21 19 18 17 16 15 15 16 17 17 17 16 15 15 15 15 14 14 14 14 14 14 15
28 28 27 18 8 5 9 12 12 8 9 19 29 36 34 28 29 30 32 36 34 36 38 34 30 27 26 27 25 23 23 22 21 20 19 19 19 20 21 21 21 20 18 16 15 15 15 14 14 15 14 14 12 10 8 7 6 4 5 7 9 11 12 14 16 18 21 23 25 27 27 26 25 24 22 20 18 17 16 16 16 16 17 17 17 17 16 15 15 15 15 15 15 15 15 15 15
31 31 30 17 6 3 3 3 3 6 12 17 22 24 22 28 33 25 26 33 29 30 37 37 31 26 23 23 21 20 19 18 18 19 19 21 20 17 18 19 19 19 19 18 17 17 16 16 16 16 16 16 14 12 10 9 7 6 6 8 10 12 13 15 16 18 20 23 25 27 28 28 27 24 22 20 19 18 17 16 16 16 16 16 16 16 16 15 15 15 15 15 16 16 17 17 17
31 31 30 23 13 5 4 5 4 5 10 14 17 13 9 15 21 19 22 24 18 21 35 41 35 28 24 22 21 19 18 17 17 17 17 19 19 17 16 16 15 15 16 18 19 19 18 18 18 18 19 18 16 14 12 11 10 9 9 9 11 13 14 16 17 18 20 22 25 27 29 29 27 24 22 20 19 18 17 16 16 16 16 16 16 16 16 15 15 15 15 15 16 17 18 18 18
31 32 31 26 20 14 11 11 11 10 7 8 11 10 8 9 12 12 13 13 11 17 32 40 36 30 29 28 26 23 19 18 15 14 16 18 19 19 18 16 14 13 13 15 18 20 20 19 19 20 20 19 18 16 15 13 12 12 12 12 12 13 15 16 17 18 20 22 25 27 28 29 27 24 22 20 19 18 17 16 16 15 15 16 16 15 15 15 15 15 15 15 15 16 17 17 18
28 33 35 29 22 20 16 11 12 9 4 5 10 11 12 13 12 13 14 15 16 17 25 33 33 30 31 32 30 26 22 19 15 14 16 18 20 20 18 17 15 13 12 12 15 18 20 20 19 21 22 21 21 19 17 16 15 15 15 14 14 15 16 17 18 18 20 23 25 26 28 29 28 25 22 20 19 18 17 16 15 15 15 15 15 15 15 15 15 15 15 14 15 16 17 17 18
26 30 31 27 20 18 16 7 3 3 1 5 11 13 14 12 10 13 17 18 19 20 24 29 30 30 30 29 29 25 21 19 17 16 17 18 20 20 19 18 15 13 11 10 11 14 18 21 21 22 24 23 22 20 19 18 17 17 18 17 17 17 17 18 18 19 20 23 25 26 28 29 29 25 22 19 18 17 16 15 14 14 15 14 14 14 15 14 14 15 15 14 14 15 17 18 19
28 27 25 26 21 16 16 9 2 3 2 3 7 13 15 15 14 16 19 20 21 23 27 31 32 32 29 26 24 23 22 22 22 21 21 21 22 22 21 20 18 16 14 13 13 14 17 20 21 23 24 25 24 23 21 21 21 20 20 20 19 19 18 19 20 20 22 24 26 27 28 30 28 25 22 21 19 16 15 15 14 14 14 14 14 14 14 14 14 14 14 14 14 15 16 18 19
32 26 23 30 28 21 24 22 12 8 4 2 5 8 9 13 15 16 19 22 24 25 30 35 34 31 27 24 24 25 25 24 23 22 21 21 22 23 23 22 21 19 18 17 18 19 18 19 21 23 25 27 27 26 26 25 24 23 23 22 21 21 21 22 22 22 23 26 28 27 28 29 28 25 23 21 18 15 14 14 14 14 14 14 14 14 14 14 13 13 13 14 15 16 17 18 19
36 31 26 29 29 25 23 23 20 15 7 3 4 5 8 12 12 14 20 24 25 26 30 33 31 27 24 23 25 26 24 22 21 19 19 20 21 23 23 22 22 22 22 21 20 21 21 21 21 23 26 28 29 29 29 28 26 26 26 24 24 24 24 24 23 23 24 27 29 28 28 29 27 24 22 19 16 14 13 13 13 14 14 14 14 15 16 16 14 14 14 15 16 17 18 18 19
37 36 33 31 29 25 16 11 18 21 13 9 8 4 8 12 11 13 22 25 24 24 27 28 26 24 22 22 23 21 17 16 17 16 16 18 20 21 21 22 23 24 24 22 20 21 22 22 23 24 26 28 29 30 31 30 29 29 28 27 26 26 26 25 24 24 25 28 29 28 28 28 26 23 20 17 15 13 12 12 12 12 13 14 14 16 17 17 16 16 16 16 17 17 18 18 19
Wind_Direction
48 47 37 31 44 60 77 85 85 86 87 86 84 89 97 99 93 86 89 101 110 121 135 124 120 123 122 127 126 121 128 134 137 138 132 132 135 133 134 132 128 126 125 125 125 126 126 123 123 121 115 111 110 110 113 115 117 119 120 122 124 124 124 125 126 126 125 124 125 126 125 124 125 127 129 133 137 138 135 131 130 132 135 137 136 131 126 123 112 90 71 60 54 49 43 33 24
46 42 36 43 64 74 84 90 90 89 87 88 88 90 99 101 91 89 89 90 99 125 141 128 122 124 119 121 122 124 126 130 140 137 130 132 134 134 134 131 129 128 129 127 126 128 128 127 125 121 114 110 109 109 110 112 114 116 117 119 120 121 124 126 128 126 124 124 125 125 123 124 126 129 130 132 135 134 132 129 130 131 135 134 130 124 117 110 95 83 75 67 61 50 38 26 20
44 38 38 50 72 83 87 89 91 91 90 90 93 96 98 97 94 92 88 80 92 131 144 136 127 121 123 124 128 136 128 131 141 136 129 131 133 134 134 131 130 130 130 129 128 129 130 129 126 122 117 113 111 111 110 110 111 112 115 116 117 119 122 124 124 122 123 124 124 124 124 125 126 128 128 130 131 131 131 130 132 131 129 122 114 109 102 95 86 79 70 62 52 40 29 19 14
44 33 41 60 77 88 92 93 96 95 95 99 102 104 100 101 103 97 89 72 83 132 145 148 133 116 129 126 132 137 125 128 135 134 131 130 133 133 133 132 131 131 131 130 130 130 130 129 128 124 119 114 114 114 115 113 112 113 113 113 116 118 119 120 120 121 122 124 124 125 126 126 126 126 126 127 128 128 128 128 127 122 115 110 105 101 96 87 79 73 62 54 41 30 21 12 8
51 44 57 74 82 85 92 99 99 96 100 109 108 108 108 108 110 104 93 70 73 121 138 145 131 125 130 117 123 124 121 127 128 132 131 129 133 133 133 133 132 133 132 131 131 132 132 130 129 125 119 117 116 116 116 115 114 114 113 113 116 117 118 118 119 121 121 122 123 125 126 126 126 125 125 124 124 124 123 122 116 112 109 107 104 98 90 79 69 60 49 38 27 17 9 5 0
62 69 79 78 81 86 93 103 102 100 105 115 115 115 118 121 122 118 109 87 87 106 121 126 127 130 122 111 115 116 118 124 125 128 128 127 131 133 133 134 135 136 135 134 132 133 134 133 131 128 124 122 118 116 115 115 115 114 114 114 115 116 117 117 118 120 120 121 121 122 123 124 124 124 123 121 121 121 118 114 110 109 109 104 97 88 78 68 55 43 31 18 11 6 1 358 352
69 80 85 80 86 90 91 101 105 104 104 111 120 123 124 128 134 137 128 98 99 110 118 119 122 123 113 113 117 113 117 121 125 128 127 129 131 132 133 135 137 138 138 136 135 136 135 134 134 132 129 124 119 117 118 119 118 117 115 115 115 115 115 115 117 117 118 118 117 117 118 119 119 119 118 118 118 116 113 111 110 110 104 97 86 74 64 53 37 25 13 3 1 359 355 351 346
75 87 89 91 94 95 89 96 107 108 104 106 114 120 119 123 132 139 129 105 106 115 120 119 119 109 109 118 118 115 119 122 126 126 127 130 129 129 129 132 137 140 140 138 138 137 136 136 136 133 130 125 121 120 121 122 121 120 117 116 116 116 116 116 116 116 117 116 115 114 114 115 114 116 115 115 114 111 111 110 110 106 96 86 70 56 44 32 17 7 357 349 347 347 349 345 341
80 98 98 100 99 102 98 99 113 113 110 118 121 123 119 115 108 93 97 101 105 118 131 128 125 106 117 120 116 117 122 124 127 126 129 130 127 126 124 128 133 139 141 140 140 139 138 137 136 133 130 126 124 123 123 123 123 122 119 118 118 118 118 118 117 117 118 116 115 115 114 114 115 116 116 115 113 109 109 108 104 93 79 61 48 27 16 10 360 350 340 335 336 337 340 340 338
89 108 107 107 105 104 102 101 108 109 114 124 127 131 125 111 82 71 79 87 92 114 139 145 156 131 123 119 115 118 123 125 128 126 129 130 128 125 124 126 130 138 141 142 142 141 140 138 137 135 131 129 126 125 124 125 124 123 122 121 119 119 119 119 120 118 116 116 115 115 114 115 117 118 117 115 111 110 109 106 94 76 59 30 15 357 350 347 343 335 331 327 330 334 336 338 337
97 110 112 111 108 104 106 105 103 109 118 123 127 133 129 102 48 76 75 85 91 96 123 139 138 132 124 119 118 120 122 124 126 124 126 127 127 126 125 126 128 136 140 143 144 143 144 141 140 137 134 132 130 129 127 128 126 125 124 123 121 121 122 121 120 117 116 116 115 114 115 116 117 118 116 114 110 111 111 102 87 57 12 344 338 335 332 332 332 328 326 323 326 330 331 334 335
104 108 115 111 105 107 111 108 105 117 126 121 123 130 132 78 14 97 84 90 97 98 118 132 130 129 122 121 122 124 126 127 128 124 123 124 125 126 127 127 129 134 139 143 144 145 145 142 141 139 138 136 134 132 130 131 129 128 127 127 126 124 123 121 118 117 116 115 116 115 116 118 117 117 114 114 114 116 112 94 46 344 323 323 325 325 325 327 328 325 323 322 324 326 327 330 331
110 101 110 112 109 114 114 111 112 119 125 121 119 133 145 96 76 96 91 88 88 99 113 119 125 124 117 123 126 129 132 131 130 125 123 122 122 125 127 130 131 133 138 144 147 147 145 143 142 141 141 139 136 135 133 133 131 131 132 132 131 130 126 123 121 120 120 120 122 122 123 126 124 123 121 121 120 125 125 353 324 326 326 325 326 325 325 325 326 324 322 323 326 327 326 328 327
139 126 104 122 122 122 122 125 128 118 116 120 128 146 153 76 64 76 87 88 84 90 98 102 118 115 113 125 130 134 136 134 134 130 127 126 124 126 127 132 134 135 138 144 149 151 151 149 146 144 142 140 140 139 138 137 136 137 137 140 139 137 134 131 132 132 134 135 136 138 137 138 138 140 138 140 207 303 323 333 328 332 332 331 331 330 330 329 330 328 328 330 333 333 331 329 328
161 212 171 156 141 132 133 134 138 128 119 126 145 156 139 76 59 69 75 82 87 81 87 106 105 80 111 121 128 136 137 137 138 135 133 132 131 131 132 135 138 139 141 146 152 155 158 156 153 151 147 146 146 146 146 146 146 148 149 152 150 147 145 144 146 149 152 152 152 150 151 158 161 193 240 295 311 323 337 338 330 330 328 329 331 333 336 334 334 336 335 335 339 342 341 337 333
161 217 233 189 155 142 141 136 139 137 131 138 157 164 128 105 67 70 61 34 92 84 74 99 91 92 119 116 124 134 137 139 142 140 139 138 138 138 139 141 143 144 146 149 154 158 161 160 159 160 158 157 157 156 157 161 163 164 166 165 162 160 158 157 159 161 162 161 161 166 176 186 198 240 301 326 335 333 337 335 325 322 321 325 331 334 338 337 338 339 338 337 340 346 349 349 343
205 219 238 205 169 155 150 146 143 138 136 145 157 163 139 117 97 87 77 38 90 94 86 96 89 100 116 119 125 131 137 142 145 143 143 143 144 145 144 144 146 148 150 152 156 159 163 164 166 168 170 170 168 170 172 176 178 177 177 174 172 169 167 168 170 169 168 167 168 180 193 195 245 359 2 356 350 334 325 322 321 323 324 330 338 338 337 340 340 338 339 338 338 343 345 347 347
218 222 225 208 183 163 156 154 151 145 143 153 164 173 161 124 119 125 115 100 101 108 123 108 104 117 119 119 125 131 136 140 145 143 144 145 144 146 145 144 147 151 153 155 157 160 164 167 169 173 176 179 178 180 182 182 182 180 177 173 169 165 166 167 168 167 159 158 157 174 213 32 19 16 8 360 354 339 327 323 326 328 330 335 339 338 335 338 341 338 335 335 335 338 339 342 343
216 221 218 217 195 166 159 154 150 153 155 161 174 181 178 132 135 151 150 138 128 129 144 128 119 126 125 122 126 133 134 137 144 145 146 145 143 145 145 145 147 151 154 156 157 158 162 165 169 172 175 177 178 179 179 178 176 173 168 162 160 156 158 161 162 155 138 125 115 107 36 30 20 14 8 1 353 341 332 327 329 332 336 335 333 335 335 334 337 337 332 327 330 335 336 338 339
220 219 214 205 183 163 152 149 148 152 161 169 174 177 168 143 152 176 176 163 173 132 124 144 135 125 125 128 132 137 137 139 145 147 151 150 148 149 146 147 148 149 152 154 157 157 159 164 168 170 170 169 170 170 170 169 166 161 155 152 151 148 147 156 156 139 117 104 79 46 53 32 15 11 4 354 347 342 332 327 329 332 336 334 333 336 337 334 331 332 330 325 327 331 330 329 330
233 211 178 152 159 157 151 152 153 157 167 174 174 177 161 157 175 202 191 178 188 190 109 134 139 132 129 131 138 142 141 142 145 148 153 157 157 155 152 153 155 155 154 152 156 158 160 164 167 169 168 165 162 160 161 162 160 151 146 146 146 146 150 161 157 134 101 83 20 345 50 33 19 13 1 350 345 342 334 333 336 332 332 335 336 335 336 337 331 328 326 322 322 323 322 319 319
209 172 144 138 147 149 155 155 157 169 178 175 171 173 164 168 188 196 200 203 184 175 125 126 138 144 135 133 141 142 145 147 147 149 156 163 163 161 160 161 160 158 157 155 157 161 163 165 167 170 169 165 162 160 161 159 161 154 148 154 160 163 171 173 166 318 327 355 338 320 38 39 23 14 4 355 347 343 337 335 337 331 328 331 332 331 332 335 332 328 323 317 314 313 312 309 308
150 140 134 142 143 139 155 152 162 179 181 174 171 168 168 175 182 188 211 231 178 152 127 134 146 158 147 144 150 147 151 153 151 153 157 162 164 165 164 164 161 159 160 159 160 162 165 169 169 173 174 172 172 171 173 168 167 169 166 175 198 209 201 215 306 311 320 343 341 335 48 42 23 10 3 358 348 338 334 332 332 329 324 323 324 324 324 327 330 327 322 316 310 305 302 300 301
147 139 136 138 130 128 153 155 167 175 169 168 170 168 172 183 182 188 208 219 185 143 126 144 150 162 161 156 160 158 158 158 159 160 160 163 165 169 173 171 166 166 168 164 165 164 166 173 176 182 186 182 177 176 182 182 175 180 200 262 323 282 263 285 305 308 320 334 340 77 58 19 5 359 358 354 342 330 326 325 326 325 323 323 321 319 317 320 323 319 317 314 308 301 294 293 297
155 144 138 136 131 141 152 155 162 167 165 165 164 162 166 184 186 188 204 219 188 148 139 155 158 161 166 168 171 169 166 167 170 163 161 166 172 179 182 180 175 170 170 169 170 172 175 179 183 190 195 188 176 178 186 186 182 196 250 312 342 312 290 300 305 300 311 312 254 187 295 310 327 344 350 343 331 324 319 316 319 322 322 322 320 316 313 313 311 305 302 302 302 299 294 293 295
149 142 142 144 143 150 158 161 167 174 182 185 177 169 171 187 188 182 203 228 199 172 169 172 175 169 168 174 180 178 172 179 183 169 161 167 175 184 187 182 180 177 168 168 172 175 183 186 189 194 202 200 183 187 194 200 216 247 294 317 329 321 308 317 315 295 302 306 277 295 297 302 311 323 333 326 316 311 310 312 316 320 318 316 314 310 308 307 304 299 294 291 293 296 296 295 294
147 142 141 143 145 156 170 168 170 178 182 197 208 191 187 196 197 183 188 219 215 200 204 194 187 180 175 174 180 183 176 186 194 182 174 175 175 180 188 185 180 183 172 166 173 175 182 187 196 207 214 212 209 213 214 227 244 269 297 305 320 328 324 331 326 300 305 312 299 302 298 302 310 313 315 309 302 302 304 307 310 312 313 312 309 306 305 303 301 299 295 291 291 294 296 295 292
155 148 139 146 158 166 178 171 168 177 171 192 234 190 184 194 206 198 186 203 215 216 220 198 184 183 177 172 177 180 175 186 195 190 189 186 177 174 184 184 178 185 182 182 192 188 187 196 212 228 231 223 231 240 241 248 255 271 291 304 316 323 318 319 316 297 298 302 301 309 308 311 316 315 311 302 298 302 306 306 307 308 308 308 307 304 300 298 296 295 295 293 292 293 293 292 289
164 157 144 153 168 167 177 180 178 190 179 198 217 161 171 194 203 204 192 199 212 219 216 182 180 183 174 172 176 178 179 188 193 189 193 190 179 180 185 184 185 189 191 195 205 218 220 226 245 256 259 254 256 264 266 268 274 290 301 308 309 305 301 302 302 295 296 306 314 315 315 319 319 313 307 301 298 301 302 302 305 308 307 306 304 300 296 294 295 294 295 293 291 291 290 288 287
166 167 157 152 156 160 172 188 190 195 188 207 213 157 169 195 200 200 198 207 211 209 200 176 175 172 169 175 175 181 189 191 193 191 199 203 187 189 190 185 194 200 204 204 207 229 239 242 253 263 278 277 275 280 279 275 276 288 296 297 295 293 294 299 301 299 304 317 320 314 311 314 309 301 299 299 299 300 301 301 303 304 303 304 301 296 293 292 295 297 297 293 291 291 289 287 285
163 162 161 154 157 167 177 203 200 196 200 208 216 160 169 188 195 201 207 212 209 204 199 186 172 157 164 179 181 190 200 193 194 201 214 223 209 204 201 196 204 210 218 218 214 228 238 247 259 267 278 275 270 271 268 267 262 269 279 280 284 288 286 286 287 290 298 306 305 301 301 302 300 297 297 296 295 298 301 304 305 300 298 303 302 295 290 288 289 291 290 289 290 290 287 285 285
166 161 162 164 173 175 177 201 202 195 194 199 213 152 163 183 191 198 210 206 208 216 204 191 177 162 167 187 195 196 202 205 204 207 219 226 224 220 211 204 208 209 216 222 222 225 229 239 252 262 263 258 257 257 249 241 236 243 255 263 272 275 274 274 278 285 290 293 294 296 299 301 299 297 296 295 294 297 301 304 304 301 300 303 302 297 289 284 283 282 278 279 283 283 282 283 285
167 171 168 171 178 172 174 192 203 197 186 191 211 167 165 181 185 192 206 200 213 233 211 200 194 176 177 196 208 206 208 216 213 209 214 218 224 225 211 200 205 203 209 221 226 222 218 217 218 234 247 249 249 251 247 240 236 236 237 243 249 256 264 267 275 284 290 294 296 297 298 296 295 296 296 297 299 300 300 300 300 299 301 302 301 299 294 288 284 279 275 274 276 275 275 278 281
164 176 174 176 174 168 173 184 191 194 186 190 205 213 192 186 181 187 196 198 216 233 217 212 210 187 186 201 212 213 217 222 221 214 211 213 220 223 208 195 208 211 212 225 234 227 218 213 214 221 235 245 248 246 246 250 255 255 250 249 251 257 267 273 278 283 290 296 292 291 294 296 297 299 299 300 299 297 295 296 298 299 301 300 298 299 295 291 287 281 275 273 272 272 272 273 277
172 180 179 177 173 177 182 183 189 191 183 189 200 214 216 194 179 184 188 194 212 226 221 220 222 205 196 207 212 213 218 223 223 218 211 210 213 217 211 205 212 216 216 229 241 243 230 223 224 222 225 237 245 245 246 254 262 266 268 269 271 275 280 288 293 295 298 294 289 290 296 299 300 299 299 297 294 293 294 298 300 301 302 301 302 301 296 291 288 285 280 276 274 272 271 270 272
187 192 185 180 180 188 189 189 196 190 182 193 204 211 212 201 188 189 191 192 201 212 216 221 226 216 205 210 211 208 215 220 221 217 209 205 205 209 212 209 211 214 219 229 239 248 245 238 235 228 226 231 239 245 248 256 263 268 275 278 283 285 288 296 301 304 304 296 294 299 302 303 304 305 304 300 298 299 302 304 305 304 304 306 307 305 301 296 292 290 286 281 278 276 275 272 270
204 197 192 190 189 192 191 194 198 189 190 201 207 211 213 207 200 203 198 189 196 203 209 220 221 213 207 210 208 203 209 217 221 218 207 200 201 206 211 208 208 212 218 225 232 239 241 242 233 225 225 225 231 240 245 255 263 270 281 286 290 293 296 301 302 305 305 302 306 311 312 312 313 313 310 307 306 308 308 308 307 306 307 309 310 307 304 300 297 294 292 288 284 281 279 277 276
225 202 198 196 196 198 196 198 196 194 204 206 204 211 212 209 209 210 201 194 208 213 210 219 218 212 212 213 208 199 203 214 220 218 209 204 203 207 213 213 211 213 215 219 222 223 229 236 225 213 212 213 219 228 236 250 261 274 288 294 297 300 301 303 304 306 307 310 315 317 317 316 315 314 312 309 309 310 310 311 309 308 309 310 310 308 305 302 299 298 297 295 293 289 284 281 280
242 212 202 201 204 204 198 201 203 200 206 202 201 209 208 207 214 214 212 216 230 228 219 224 231 228 228 223 212 201 204 213 216 213 209 210 211 212 215 216 215 214 214 217 216 216 223 224 216 207 204 210 216 222 237 252 264 280 291 297 302 305 305 307 308 310 311 314 316 316 316 315 314 313 309 307 307 308 308 308 306 306 308 310 311 312 311 309 306 304 301 294 291 291 288 286 285
253 225 205 203 206 204 201 203 206 205 206 201 199 203 202 199 209 213 221 236 241 234 222 225 237 242 247 242 228 216 214 216 212 206 209 214 215 214 215 216 215 217 216 216 215 214 215 214 210 207 209 215 221 230 251 267 280 291 298 305 309 310 312 313 312 312 312 312 312 313 314 314 315 314 312 312 311 311 310 309 309 310 314 317 319 318 317 315 312 308 303 293 288 288 288 288 287
258 243 220 214 211 209 210 204 202 206 206 201 189 184 191 193 200 208 210 220 229 230 225 225 228 231 247 248 235 227 224 223 212 202 208 215 212 210 214 216 213 216 215 208 210 211 211 213 212 214 219 224 228 239 259 277 291 299 304 310 314 316 317 316 314 314 313 314 315 317 320 322 323 324 324 323 322 321 321 318 319 321 323 325 324 321 319 318 315 311 305 297 293 290 287 283 283
263 255 231 228 229 223 217 202 195 198 196 198 188 175 188 195 200 208 204 204 213 219 226 231 230 227 236 237 225 221 221 220 213 207 210 212 208 206 212 216 213 213 210 202 207 210 211 217 220 223 228 230 236 248 261 276 292 302 314 320 324 325 325 324 323 324 326 329 331 332 333 333 332 332 330 328 326 325 324 322 323 325 325 324 323 323 322 322 319 314 307 300 295 292 288 282 280
262 251 225 233 247 235 215 197 189 191 195 201 201 197 187 191 203 209 203 205 210 215 224 231 232 230 232 230 218 216 218 217 211 209 211 209 209 210 213 220 217 215 214 210 215 214 215 224 225 224 227 231 236 241 248 279 312 331 344 346 350 354 354 352 350 348 348 347 347 344 341 339 336 334 330 328 327 324 322 322 323 324 324 324 324 325 325 324 321 316 310 303 298 296 293 288 284
257 249 236 244 253 234 210 196 191 200 204 198 200 205 190 190 206 208 203 207 211 216 223 227 231 233 235 236 227 219 220 221 218 217 216 212 212 215 218 222 222 224 224 223 226 221 222 228 224 218 220 220 217 222 238 338 17 27 31 23 20 19 14 10 6 3 359 354 351 348 344 342 338 335 332 329 326 322 322 324 327 328 328 327 327 328 328 326 323 319 315 310 306 303 301 298 296
251 246 244 249 253 229 205 198 197 203 203 186 191 204 195 195 207 204 202 207 211 218 224 228 231 232 235 239 238 232 229 226 222 223 226 224 221 221 223 225 223 226 228 230 231 227 227 228 223 216 214 211 207 204 198 108 80 60 43 28 19 14 9 7 4 2 360 355 352 349 346 343 339 337 333 331 329 326 327 330 333 333 333 332 332 333 330 325 323 319 314 311 309 308 305 304 303
244 243 246 244 249 225 201 202 202 199 195 185 191 199 199 203 204 199 200 206 213 221 225 232 234 233 236 240 243 242 240 235 225 222 226 226 227 227 229 231 230 228 229 231 230 229 231 228 224 220 212 208 205 200 192 162 117 28 9 8 6 4 3 2 360 359 357 355 353 351 349 346 341 337 334 333 333 330 330 332 334 334 334 334 334 333 330 324 322 318 313 309 307 306 304 304 305
240 248 254 245 251 236 200 203 201 192 196 195 193 199 204 211 202 198 203 217 226 223 222 228 230 232 237 241 244 244 244 245 236 231 230 226 223 223 227 232 234 233 231 233 232 231 233 229 224 220 213 210 210 210 207 204 244 310 342 350 353 354 354 354 354 354 354 353 353 351 350 347 342 339 335 334 333 332 333 333 333 333 333 333 333 333 330 325 322 319 315 311 307 306 305 305 306
244 249 256 247 250 235 193 195 195 187 215 204 200 204 206 212 213 208 217 235 241 228 224 227 226 228 233 236 240 243 246 250 247 246 245 238 227 221 223 228 232 234 233 234 235 234 235 232 226 221 217 216 217 221 222 227 256 293 326 336 339 342 344 346 346 348 348 348 349 349 349 347 343 339 336 334 334 334 334 333 333 334 334 332 331 331 329 324 320 318 315 312 310 308 308 308 308
238 242 249 241 227 208 183 188 196 206 219 206 207 208 205 217 229 228 235 243 241 234 233 235 231 228 228 230 233 238 245 249 249 250 249 250 244 230 224 226 231 237 236 236 236 236 237 234 229 225 220 222 225 227 230 236 250 272 302 319 326 328 331 337 339 342 343 343 344 345 346 346 343 340 338 335 334 333 333 333 332 333 333 330 328 327 325 320 316 315 314 312 310 310 309 309 308
232 237 241 228 165 120 201 209 205 220 218 207 208 207 202 215 226 235 241 241 245 243 238 236 234 232 228 227 225 227 236 240 243 247 248 252 253 243 235 230 232 238 238 238 237 235 237 234 231 227 222 224 228 231 236 240 247 258 279 298 311 318 322 326 331 335 337 338 340 341 342 344 344 341 338 335 334 332 330 330 329 329 328 326 324 322 320 317 313 312 312 311 309 306 306 306 307
228 235 238 228 209 195 213 214 190 200 213 208 207 205 190 205 223 236 236 238 253 251 236 229 230 233 232 228 223 221 228 234 238 246 250 254 255 250 247 242 240 242 241 241 239 236 238 236 231 229 227 228 231 234 239 244 248 254 267 283 297 308 313 318 322 327 331 333 335 336 339 342 343 341 338 335 332 329 327 326 325 324 323 322 320 317 316 314 311 310 308 307 304 302 302 304 305
226 231 233 227 223 225 236 240 227 214 217 219 213 212 219 235 246 245 240 247 253 241 231 226 224 227 228 229 226 221 224 230 234 243 252 256 257 253 251 251 252 253 250 245 241 239 240 239 234 230 230 230 231 235 240 245 250 255 264 275 286 298 304 310 316 321 327 330 332 334 336 340 341 340 339 336 331 327 325 324 323 321 319 317 315 314 313 311 310 308 306 303 302 301 302 304 304
223 223 225 226 230 232 230 232 232 227 225 225 223 228 240 253 257 250 251 251 238 224 221 220 218 218 222 226 226 223 224 228 234 248 258 259 259 257 256 257 259 261 260 255 247 243 243 244 239 233 232 231 231 234 239 246 251 256 264 270 278 288 295 302 310 317 324 327 329 331 333 336 338 339 340 335 328 324 322 321 320 317 314 312 311 310 310 310 309 307 303 301 301 301 302 303 303
217 215 223 225 225 225 215 203 201 206 217 228 233 246 245 238 232 234 238 232 220 208 202 205 208 209 213 220 222 222 225 230 237 249 260 262 261 261 260 261 264 265 264 262 258 250 245 247 245 238 236 237 237 238 241 247 252 257 263 268 274 281 289 296 303 311 320 326 327 327 329 333 336 339 339 333 327 323 320 317 315 313 311 310 309 308 308 308 306 304 301 299 298 298 298 298 300
220 222 226 216 209 206 203 204 174 165 228 260 241 253 252 243 236 228 226 223 216 203 191 192 198 201 204 209 215 221 225 230 236 244 253 257 258 261 263 263 266 266 267 268 268 261 252 250 250 244 240 239 239 240 242 246 251 257 262 266 272 278 285 291 297 305 315 322 324 323 326 332 335 337 337 333 329 323 317 314 313 313 311 311 311 310 308 306 304 303 301 299 298 295 294 296 299
221 228 222 212 216 220 213 217 216 188 193 246 242 256 252 243 243 233 225 226 226 212 192 187 193 196 197 203 211 219 223 228 236 245 253 257 259 262 265 266 267 268 273 275 274 270 262 257 255 250 243 240 239 241 242 245 250 255 259 264 270 276 282 287 293 299 308 316 320 320 324 331 333 335 336 333 328 321 315 314 315 316 314 313 313 312 311 309 308 308 307 305 301 298 299 301 303
216 220 214 208 216 225 221 221 219 203 185 160 197 256 233 220 235 232 219 219 223 215 194 185 189 192 194 202 210 217 221 227 236 247 255 258 260 263 265 268 268 267 269 271 273 272 267 261 259 255 249 245 245 246 246 247 250 253 257 262 267 274 280 284 290 296 302 312 315 316 323 330 332 334 335 331 326 320 315 313 313 316 319 319 316 314 316 318 318 315 312 307 304 304 307 307 307
218 218 216 214 217 217 209 216 221 214 213 198 189 241 232 217 231 222 209 208 204 194 184 181 184 188 189 192 199 208 217 227 236 246 252 253 256 259 263 265 264 263 265 266 268 270 268 265 262 258 253 250 249 250 251 250 250 252 257 260 264 271 276 281 288 293 301 309 312 314 322 329 331 333 334 332 329 324 316 309 307 312 319 322 319 316 317 319 320 316 311 308 308 310 311 310 308